Retour au catalogue

IRIDIUM 103

ActifCommunicationsPO
NORAD 41918·PAYLOAD·🇺🇸 United States

Lancé Jan 14, 2017 depuis Vandenberg Space Force Base

Loading…

Prochains Passages (prochaines 24 heures)

TLE

FraisSource: CelesTrak SupGP

Époque: Sep 14, 2026, 21:31 UTC

1 41918C 17003B   26257.89687500  .00003250  00000+0  11622-2 0  2579
2 41918  86.3949  50.9178 0002337  91.5717  22.0362 14.34213996    17

Suivez IRIDIUM 103 en temps réel avec AllMySat

Download on the App Store